Fort Lewis, WA

10:22 PM PDT on June 22, 2018 (GMT -0700)
Gray Army Air Field

Weather History for KGRF - August, 2016

Change the Weather History Date:

Friday, August 19, 2016

  Actual Average Record
Temperature  
Mean Temperature 79 °F -  
Max Temperature 95 °F 75 °F 95 °F (2016)
Min Temperature 64 °F 52 °F 44 °F (1996)
Cooling Degree Days 14    
Growing Degree Days 29 (Base 50)    
Moisture  
Dew Point 53 °F    
Average Humidity 42    
Maximum Humidity 69    
Minimum Humidity 23    
Precipitation  
Precipitation 0.00 in - - ()
Sea Level Pressure  
Sea Level Pressure 29.96 in    
Wind  
Wind Speed 6 mph (North)    
Max Wind Speed 14 mph    
Max Gust Speed 17 mph    
Visibility 10 miles    
Events      
Averages and records for this station are not official NWS values.
T = Trace of Precipitation, MM = Missing Value Source: NWS Daily Summary

Daily Weather History Graph

Daily Weather History Graph

Search for Another Location

Airport or City:

Astronomy

Aug. 19, 2016 Rise Set
Actual Time 6:13 AM PDT 8:13 PM PDT
Civil Twilight 5:40 AM PDT 8:45 PM PDT
Nautical Twilight 4:59 AM PDT 9:26 PM PDT
Astronomical Twilight 4:14 AM PDT 10:11 PM PDT
Moon 9:01 PM PDT (8/19) 7:44 AM PDT (8/19)
Length of Visible Light 15h 05m
Length of Day
13h 59m
Full, 97% of the Moon is Illuminated
Aug 19
Full
Aug 24
Last Quarter
Sep 1
New
Sep 9
First Quarter
Sep 16
Full

Hourly Weather History & Observations

Time (PDT) Temp. Heat Index Dew Point Humidity Pressure Visibility Wind Dir Wind Speed Gust Speed Precip Events Conditions
12:58 AM 64.6 °F - 53.4 °F 67% 29.96 in 10.0 mi Variable 1.2 mph - N/A   Clear
1:58 AM 73.4 °F - 52.9 °F 49% 29.96 in 10.0 mi NE 6.9 mph - N/A   Clear
2:58 AM 71.6 °F - 54.3 °F 54% 29.96 in 10.0 mi NE 5.8 mph - N/A   Clear
3:58 AM 71.6 °F - 55.2 °F 56% 29.97 in 10.0 mi NE 5.8 mph - N/A   Clear
4:58 AM 70.7 °F - 55.0 °F 58% 29.96 in 10.0 mi NE 6.9 mph - N/A   Clear
5:58 AM 68.2 °F - 56.5 °F 66% 29.98 in 10.0 mi NNE 3.5 mph - N/A   Clear
6:58 AM 68.0 °F - 57.4 °F 69% 29.99 in 10.0 mi NNE 3.5 mph - N/A   Clear
7:58 AM 70.3 °F - 56.7 °F 62% 30.00 in 10.0 mi NNE 4.6 mph - N/A   Clear
8:58 AM 76.3 °F - 53.6 °F 45% 30.00 in 10.0 mi North 8.1 mph - N/A   Clear
9:58 AM 81.0 °F 80.4 °F 53.1 °F 38% 30.01 in 10.0 mi NNW 9.2 mph - N/A   Clear
10:58 AM 82.9 °F 81.8 °F 53.1 °F 36% 30.01 in 10.0 mi North 10.4 mph - N/A   Clear
11:58 AM 86.2 °F 84.4 °F 53.6 °F 33% 30.00 in 10.0 mi North 9.2 mph - N/A   Clear
12:58 PM 89.4 °F 87.3 °F 53.8 °F 30% 29.99 in 10.0 mi NW 10.4 mph - N/A   Clear
1:58 PM 91.4 °F 88.9 °F 53.4 °F 27% 29.98 in 10.0 mi North 8.1 mph - N/A   Clear
2:58 PM 93.9 °F 91.7 °F 53.8 °F 26% 29.96 in 10.0 mi NW 13.8 mph - N/A   Clear
3:58 PM 94.8 °F 92.5 °F 54.0 °F 25% 29.94 in 10.0 mi NW 12.7 mph 17.3 mph N/A   Clear
4:58 PM 94.6 °F 92.0 °F 53.1 °F 24% 29.93 in 10.0 mi NW 10.4 mph - N/A   Clear
5:58 PM 93.7 °F - 51.1 °F 23% 29.92 in 10.0 mi NNW 10.4 mph - N/A   Clear
6:58 PM 90.7 °F - 50.2 °F 25% 29.91 in 10.0 mi North 12.7 mph - N/A   Clear
7:58 PM 86.5 °F - 49.8 °F 28% 29.91 in 10.0 mi North 4.6 mph - N/A   Clear
8:58 PM 81.5 °F - 48.7 °F 32% 29.92 in 10.0 mi NW 2.3 mph - N/A   Clear
9:58 PM 76.6 °F - 48.9 °F 38% 29.93 in 10.0 mi Calm Calm - N/A   Clear
10:58 PM 70.5 °F - 49.3 °F 47% 29.93 in 10.0 mi SSE 3.5 mph - N/A   Clear
11:58 PM 65.8 °F - 48.0 °F 53% 29.93 in 10.0 mi SE 4.6 mph - N/A   Clear